Location: *
(33.8649°S, 62.1526°E)
Time: 13:03:38
(UTC+00:00)

SPOT 5 - Pass Details

Date: 17 January 2021
Orbit: 622 x 815 km, 98.2° (Epoch: 02 March)

Event Time Altitude Azimuth Distance (km) Brightness Sun altitude
Rises 18:33:17 0° 171° (S) 2,977 6.8 -31.6°
Reaches altitude 10° 18:35:28 10° 174° (S) 2,078 5.9 -31.8°
Enters shadow 18:38:03 34° 183° (S) 1,105 4.2 -32.0°
